Tracking 30970 objects as of 3-Jul-2025
HD Live streaming from Space Station
objects crossing your sky now

USA 392

Track USA 392 now!
10-day predictions


NORAD ID: 60175
Int'l Code: 2024-121T
Perigee: 580.5 km
Apogee: 587.9 km
Inclination: 70.0 °
Period: 96.2 minutes
Semi major axis: 6955 km
RCS: Unknown
Launch date: June 29, 2024
Source: United States (US)
Launch site: AIR FORCE WESTERN TEST RANGE (AFWTR)
Your satellite tracking list
STARLINK-5944
Track 1 satellite(s)




NASA's NSSDC Master Catalog

Two Line Element Set (TLE):
1 60175U 24121T   25169.95025815 0.00000000  00000-0  00000-0 0    00
2 60175  69.9993 219.9572 0005258 118.7796 241.2204 14.96715183    00
Source of the keplerian elements: McCants